Champaign, IL

3:44 PM CST on November 12, 2019 (GMT -0600)
Univ Of Illinois-Willard

Weather History for KCMI - May, 2019

Change the Weather History Date:

Sunday, May 12, 2019

  Actual Average Record
Temperature  
Mean Temperature 47 °F 62 °F  
Max Temperature 49 °F 74 °F 89 °F (1999)
Min Temperature 44 °F 50 °F 35 °F (2013)
Degree Days  
Heating Degree Days 18 5  
Month to date heating degree days 94 78  
Since 1 July heating degree days 5857 5742  
Cooling Degree Days 0 2  
Month to date cooling degree days 4 16  
Year to date cooling degree days 7 27  
Moisture  
Dew Point 45 °F    
Average Humidity 91    
Maximum Humidity 100    
Minimum Humidity 82    
Precipitation  
Precipitation 0.04 in 0.14 in 1.64 in (2002)
Month to date precipitation 2.10 1.87  
Year to date precipitation 14.24 12.48  
Sea Level Pressure  
Sea Level Pressure 29.83 in    
Wind  
Wind Speed 8 mph (NNE)    
Max Wind Speed 16 mph    
Max Gust Speed 22 mph    
Visibility 8 miles    
Events      
T = Trace of Precipitation, MM = Missing Value Source: NWS Daily Summary

Daily Weather History Graph

Daily Weather History Graph

Search for Another Location

Airport or City:

Astronomy

May. 12, 2019 Rise Set
Actual Time 5:40 AM CDT 7:58 PM CDT
Civil Twilight 5:10 AM CDT 8:29 PM CDT
Nautical Twilight 4:33 AM CDT 9:06 PM CDT
Astronomical Twilight 3:52 AM CDT 9:48 PM CDT
Moon 1:00 PM CDT 2:20 AM CDT
Length of Visible Light 15h 18m
Length of Day
14h 17m
First Quarter, 58% of the Moon is Illuminated
May 12
First Quarter
May 18
Full
May 26
Last Quarter
Jun 3
New
Jun 10
First Quarter

Hourly Weather History & Observations

Time (CDT) Temp. Windchill Dew Point Humidity Pressure Visibility Wind Dir Wind Speed Gust Speed Precip Events Conditions
12:04 AM 46.9 °F - 43.0 °F 86% 29.86 in 10.0 mi NE 18.4 mph 26.5 mph N/A   Overcast
12:53 AM 46.0 °F 39.3 °F 41.0 °F 83% 29.87 in 10.0 mi NE 16.1 mph 25.3 mph N/A   Overcast
1:53 AM 46.0 °F 40.6 °F 41.0 °F 83% 29.86 in 10.0 mi NE 11.5 mph - N/A   Overcast
2:53 AM 46.0 °F 41.4 °F 42.1 °F 86% 29.83 in 10.0 mi NE 9.2 mph - N/A   Overcast
3:44 AM 45.0 °F 38.5 °F 42.1 °F 90% 29.81 in 10.0 mi NE 13.8 mph - N/A   Overcast
3:53 AM 45.0 °F 38.9 °F 42.1 °F 90% 29.82 in 10.0 mi NNE 12.7 mph - N/A   Overcast
4:37 AM 45.0 °F 38.9 °F 43.0 °F 93% 29.83 in 8.0 mi NE 12.7 mph - N/A   Overcast
4:53 AM 44.1 °F 38.1 °F 43.0 °F 96% 29.83 in 5.0 mi NE 11.5 mph - N/A   Overcast
5:04 AM 44.1 °F 38.6 °F 43.0 °F 96% 29.82 in 4.0 mi NE 10.4 mph - N/A   Overcast
5:53 AM 45.0 °F 40.6 °F 44.1 °F 97% 29.83 in 2.0 mi NNE 8.1 mph - 0.01 in   Overcast
6:53 AM 45.0 °F 39.7 °F 44.1 °F 97% 29.84 in 2.0 mi NE 10.4 mph - N/A   Overcast
7:33 AM 45.0 °F 40.1 °F 44.1 °F 97% 29.83 in 3.0 mi NE 9.2 mph - N/A   Overcast
7:53 AM 45.0 °F 39.7 °F 44.1 °F 97% 29.84 in 3.0 mi NNE 10.4 mph - N/A   Overcast
8:53 AM 45.0 °F 40.6 °F 44.1 °F 97% 29.85 in 9.0 mi NE 8.1 mph - N/A   Overcast
9:53 AM 46.0 °F 40.6 °F 44.1 °F 93% 29.84 in 7.0 mi NNE 11.5 mph - N/A   Overcast
10:53 AM 46.9 °F - 45.0 °F 93% 29.83 in 10.0 mi NE 9.2 mph - N/A   Overcast
11:51 AM 48.2 °F - 44.6 °F 87% 29.83 in 10.0 mi North 5.8 mph - N/A   Overcast
11:53 AM 48.0 °F - 45.0 °F 89% 29.84 in 10.0 mi NNE 6.9 mph - N/A   Overcast
12:53 PM 48.0 °F - 44.1 °F 86% 29.83 in 8.0 mi NNE 5.8 mph - N/A   Overcast
1:53 PM 48.0 °F - 46.0 °F 93% 29.82 in 3.0 mi North 3.5 mph - 0.01 in   Overcast
2:40 PM 48.0 °F - 46.0 °F 93% 29.82 in 3.0 mi North 3.5 mph - N/A   Overcast
2:48 PM 48.2 °F - 46.4 °F 93% 29.81 in 3.0 mi North 3.5 mph - N/A   Overcast
2:53 PM 48.0 °F - 46.0 °F 93% 29.82 in 2.5 mi North 3.5 mph - N/A   Overcast
3:45 PM 48.0 °F - 46.9 °F 96% 29.81 in 6.0 mi NNW 3.5 mph - 0.01 in   Overcast
3:53 PM 48.0 °F - 46.9 °F 96% 29.81 in 9.0 mi North 3.5 mph - 0.01 in   Overcast
4:06 PM 48.0 °F - 46.9 °F 96% 29.80 in 10.0 mi North 3.5 mph - N/A   Overcast
4:19 PM 48.0 °F - 46.9 °F 96% 29.81 in 6.0 mi WNW 4.6 mph - N/A   Overcast
4:42 PM 48.0 °F - 46.9 °F 96% 29.81 in 10.0 mi NNW 6.9 mph - 0.00 in   Overcast
4:53 PM 48.9 °F - 46.9 °F 93% 29.82 in 10.0 mi NNW 6.9 mph - 0.00 in   Overcast
5:53 PM 48.9 °F - 46.9 °F 93% 29.82 in 10.0 mi NW 6.9 mph - N/A   Overcast
6:05 PM 48.9 °F - 46.9 °F 93% 29.82 in 10.0 mi NNW 6.9 mph - N/A   Overcast
6:53 PM 48.9 °F - 46.9 °F 93% 29.83 in 9.0 mi North 6.9 mph - 0.00 in   Overcast
7:53 PM 48.0 °F - 46.0 °F 93% 29.83 in 8.0 mi North 10.4 mph - 0.01 in   Overcast
8:53 PM 46.9 °F - 44.1 °F 90% 29.85 in 10.0 mi North 8.1 mph - N/A   Overcast
9:53 PM 46.9 °F - 43.0 °F 86% 29.86 in 10.0 mi North 5.8 mph - N/A   Overcast
10:14 PM 46.0 °F 42.5 °F 43.0 °F 89% 29.86 in 10.0 mi North 6.9 mph - N/A   Overcast
10:53 PM 45.0 °F 41.8 °F 43.0 °F 93% 29.87 in 10.0 mi North 5.8 mph - N/A   Overcast
11:53 PM 46.0 °F 43.1 °F 44.1 °F 93% 29.87 in 10.0 mi NW 5.8 mph - N/A   Overcast